Location: ???????
(54.6339°N, 39.4245°E)
Time: 11:47:52
(UTC+00:00)

CZ-2D R/B - Pass Details

Date: 19 May 2025
Orbit: 790 x 841 km, 98.8° (Epoch: 13 June)

Event Time Altitude Azimuth Distance (km) Brightness Sun altitude
Rises 23:46:02 0° 17° (NNE) 3,404 7.0 -9.0°
Reaches altitude 10° 23:48:25 10° 20° (NNE) 2,469 6.1 -8.8°
Maximum altitude 23:53:53 68° 104° (ESE) 909 2.5 -8.4°
Drops below altitude 10° 23:59:19 10° 187° (S) 2,455 4.1 -7.9°
Enters shadow 00:00:22 - 189° (S) 2,862 4.4 -7.8°
